Waarnemingen

Advertentie
Mijn weer
Aviano, Italië (16036): temperatuur & dauwpunt: 14.11.2018 12:00:00 - 20.11.2018 12:00:00 (CET)Aviano, Italië (16036): windsnelheid: 14.11.2018 12:00:00 - 20.11.2018 12:00:00 (CET)Aviano, Italië (16036): windrichting: 14.11.2018 12:00:00 - 20.11.2018 12:00:00 (CET)Aviano, Italië (16036): luchtdruk: 14.11.2018 12:00:00 - 20.11.2018 12:00:00 (CET)Aviano, Italië (16036): zicht: 14.11.2018 12:00:00 - 20.11.2018 12:00:00 (CET)
Datum & Tijd tt [°C] td [°C] ff [km/u] ff [kn] dd ppp [hPa] vv [km]
20.11.2018 12:00:00 8,0 5,0 16 9 ONO - 10
20.11.2018 11:00:00 7,0 4,0 18 10 ONO - 10
20.11.2018 10:00:00 6,0 3,8 22 12 NO 1007,2 15
20.11.2018 09:00:00 6,0 5,0 21 11 NO - 10
20.11.2018 08:00:00 6,0 5,0 31 17 NNO - 10
20.11.2018 07:00:00 5,6 4,4 37 20 NNO 1006,1 15
20.11.2018 06:00:00 6,0 5,0 41 22 NNO - 10
20.11.2018 05:00:00 6,0 5,0 34 18 NNO - 10
20.11.2018 04:00:00 - - - - - - -
20.11.2018 03:00:00 - - - - - - -
20.11.2018 02:00:00 - - - - - - -
20.11.2018 01:00:00 - - - - - - -
20.11.2018 00:00:00 - - - - - - -
19.11.2018 23:00:00 - - - - - - -
19.11.2018 22:00:00 5,0 1,8 18 10 NO 1010,7 15
19.11.2018 21:00:00 6,0 3,0 18 10 ONO - 10
19.11.2018 20:00:00 6,0 2,0 22 12 O - 10
19.11.2018 19:00:00 6,0 1,0 13 7 ONO 1010,8 15
19.11.2018 18:00:00 6,0 1,0 15 8 ONO - 10
19.11.2018 17:00:00 7,0 1,0 13 7 O - 10
19.11.2018 16:00:00 7,2 0,4 18 10 ONO 1011,0 20
19.11.2018 15:00:00 8,0 0,0 21 11 ONO - 10
19.11.2018 14:00:00 8,0 1,0 18 10 NNO - 10
19.11.2018 13:00:00 8,6 0,8 13 7 O 1011,6 20
19.11.2018 12:00:00 9,0 2,0 11 6 ONO - 10
19.11.2018 11:00:00 7,0 2,0 11 6 NO - 10
19.11.2018 10:00:00 6,0 1,3 11 6 NO 1012,4 20
19.11.2018 09:00:00 5,0 2,0 5 3 N - 10
19.11.2018 08:00:00 3,0 1,0 5 3 NNO - 10
19.11.2018 07:00:00 2,4 0,1 5 3 NO 1012,4 15
19.11.2018 06:00:00 3,0 1,0 4 2 N - 10
19.11.2018 05:00:00 3,0 1,0 5 3 WNW - 10
19.11.2018 04:00:00 - - - - - - -
19.11.2018 03:00:00 - - - - - - -
19.11.2018 02:00:00 - - - - - - -
19.11.2018 01:00:00 - - - - - - -
19.11.2018 00:00:00 - - - - - - -
18.11.2018 23:00:00 - - - - - - -
18.11.2018 22:00:00 - - - - - - -
18.11.2018 21:00:00 - - - - - - -
18.11.2018 20:00:00 - - - - - - -
18.11.2018 19:00:00 - - - - - - -
18.11.2018 18:00:00 - - - - - - -
18.11.2018 17:00:00 - - - - - - -
18.11.2018 16:00:00 - - - - - - -
18.11.2018 15:00:00 - - - - - - -
18.11.2018 14:00:00 - - - - - - -
18.11.2018 13:00:00 - - - - - - -
18.11.2018 12:00:00 - - - - - - -
18.11.2018 11:00:00 - - - - - - -
18.11.2018 10:00:00 - - - - - - -
18.11.2018 09:00:00 - - - - - - -
18.11.2018 08:00:00 - - - - - - -
18.11.2018 07:00:00 - - - - - - -
18.11.2018 06:00:00 - - - - - - -
18.11.2018 05:00:00 - - - - - - -
18.11.2018 04:00:00 - - - - - - -
18.11.2018 03:00:00 - - - - - - -
18.11.2018 02:00:00 - - - - - - -
18.11.2018 01:00:00 - - - - - - -
18.11.2018 00:00:00 - - - - - - -
17.11.2018 23:00:00 - - - - - - -
17.11.2018 22:00:00 4,8 0,6 5 3 ONO 1026,7 15
17.11.2018 21:00:00 5,0 0,0 8 4 N - 10
17.11.2018 20:00:00 6,0 -2,0 9 5 ONO - 10
17.11.2018 19:00:00 7,2 1,1 9 5 N 1024,9 15
17.11.2018 18:00:00 9,0 0,0 5 3 NNO - 10
17.11.2018 17:00:00 10,0 2,0 9 5 NO - 10
17.11.2018 16:00:00 12,6 1,9 11 6 OZO 1024,3 25
17.11.2018 15:00:00 13,0 0,0 8 4 OZO - 10
17.11.2018 14:00:00 14,0 3,0 4 2 Z - 10
17.11.2018 13:00:00 12,8 2,9 4 2 W 1025,1 25
17.11.2018 12:00:00 12,0 3,0 4 2 ONO - 10
17.11.2018 11:00:00 12,0 2,0 4 2 ZZO - 10
17.11.2018 10:00:00 9,8 1,2 2 1 ZW 1026,7 25
17.11.2018 09:00:00 6,0 2,0 2 1 N - 10
17.11.2018 08:00:00 4,0 1,0 8 4 NNO - 10
17.11.2018 07:00:00 4,0 0,5 9 5 NNW 1026,8 20
17.11.2018 06:00:00 4,0 1,0 4 2 ZW - 10
17.11.2018 05:00:00 5,0 2,0 13 7 ONO - 10
17.11.2018 04:00:00 - - - - - - -
17.11.2018 03:00:00 - - - - - - -
17.11.2018 02:00:00 - - - - - - -
17.11.2018 01:00:00 - - - - - - -
17.11.2018 00:00:00 - - - - - - -
16.11.2018 23:00:00 - - - - - - -
16.11.2018 22:00:00 5,8 2,3 5 3 NNO 1028,7 15
16.11.2018 21:00:00 7,0 2,0 9 5 NNO - 10
16.11.2018 20:00:00 6,0 3,0 8 4 N - 10
16.11.2018 19:00:00 6,4 3,6 8 4 NNO 1027,9 15
16.11.2018 18:00:00 9,0 4,0 0 0 N - 10
16.11.2018 17:00:00 12,0 2,0 2 1 OZO - 10
16.11.2018 16:00:00 13,4 3,2 4 2 ZZO 1026,9 25
16.11.2018 15:00:00 14,0 4,0 9 5 O - 10
16.11.2018 14:00:00 14,0 4,0 9 5 OZO - 10
16.11.2018 13:00:00 13,0 2,8 9 5 O 1027,7 25
16.11.2018 12:00:00 12,0 3,0 9 5 NO - 10
16.11.2018 11:00:00 12,0 3,0 9 5 ONO - 10
16.11.2018 10:00:00 10,4 6,0 8 4 NO 1028,9 25
16.11.2018 09:00:00 9,0 5,0 5 3 N - 10
16.11.2018 08:00:00 9,0 6,0 5 3 ONO - 10
16.11.2018 07:00:00 8,1 5,2 9 5 N 1027,8 25
16.11.2018 06:00:00 7,0 4,0 5 3 NNO - 10
16.11.2018 05:00:00 8,0 4,0 5 3 NNO - 10
16.11.2018 04:00:00 - - - - - - -
16.11.2018 03:00:00 - - - - - - -
16.11.2018 02:00:00 - - - - - - -
16.11.2018 01:00:00 - - - - - - -
16.11.2018 00:00:00 - - - - - - -
15.11.2018 23:00:00 - - - - - - -
15.11.2018 22:00:00 10,4 5,2 8 4 N 1025,0 15
15.11.2018 21:00:00 11,0 7,0 8 4 NO - 10
15.11.2018 20:00:00 10,0 8,0 9 5 ONO - 10
15.11.2018 19:00:00 9,6 8,4 13 7 O 1024,6 15
15.11.2018 18:00:00 11,0 9,0 9 5 N - 10
15.11.2018 17:00:00 13,0 9,0 4 2 W - 10
15.11.2018 16:00:00 15,2 8,2 2 1 Z 1024,3 25
15.11.2018 15:00:00 16,0 8,0 4 2 ZZW - 10
15.11.2018 14:00:00 16,0 9,0 2 1 NNO - 10
15.11.2018 13:00:00 15,4 8,2 5 3 O 1025,6 25
15.11.2018 12:00:00 15,0 9,0 8 4 NO - 10
15.11.2018 11:00:00 13,0 9,0 4 2 NNO - 10
15.11.2018 10:00:00 13,4 8,9 8 4 Z 1026,7 10
15.11.2018 09:00:00 12,0 9,0 8 4 WZW - 10
15.11.2018 08:00:00 10,0 7,0 8 4 WZW - 10
15.11.2018 07:00:00 9,0 5,9 5 3 WNW 1026,5 15
15.11.2018 06:00:00 10,0 8,0 4 2 ZZO - 10
15.11.2018 05:00:00 9,0 8,0 5 3 NW - 10
15.11.2018 04:00:00 - - - - - - -
15.11.2018 03:00:00 - - - - - - -
15.11.2018 02:00:00 - - - - - - -
15.11.2018 01:00:00 - - - - - - -
15.11.2018 00:00:00 - - - - - - -
14.11.2018 23:00:00 - - - - - - -
14.11.2018 22:00:00 10,0 8,8 8 4 NO 1027,3 15
14.11.2018 21:00:00 10,0 8,0 9 5 NO - 10
14.11.2018 20:00:00 11,0 9,0 13 7 NO - 10
14.11.2018 19:00:00 11,0 9,4 9 5 NNO 1026,9 15
14.11.2018 18:00:00 14,0 12,0 5 3 NO - 10
14.11.2018 17:00:00 16,0 11,0 5 3 NNO - 10
14.11.2018 16:00:00 18,0 10,6 5 3 ONO 1026,6 25
14.11.2018 15:00:00 19,0 11,0 5 3 O - 10
14.11.2018 14:00:00 19,0 11,0 2 1 N - 10
14.11.2018 13:00:00 18,2 10,3 8 4 ONO 1027,7 25
14.11.2018 12:00:00 17,0 11,0 8 4 ONO - 10

tt = temperatuur
td = dauwpunt
ff = windsnelheid
dd = windrichting
ppp = luchtdruk
vv = zicht

Weerstations in de omgeving